Location: La Trinit�
(48.1620°N, 3.4512°W)
Time: 03:54:49
(UTC+00:00)

SL-24 DEB - Pass Details

Date: 08 May 2021
Orbit: 667 x 697 km, 92.0° (Epoch: 13 June)

Event Time Altitude Azimuth Distance (km) Brightness Sun altitude
Exits shadow 22:31:54 47° 190° (S) 887 4.4 -20.9°
Maximum altitude 22:33:12 77° 266° (W) 690 4.2 -21.0°
Drops below altitude 10° 22:37:50 10° 353° (N) 2,105 7.8 -21.3°
Sets 22:40:06 0° 355° (N) 3,025 8.9 -21.5°
